Home   Weather   New Orleans   Past weeks
Flag for USA

Past Weather in New Orleans, Louisiana, USA — Yesterday and Last 2 Weeks

Now
67 °F

Clear.


Feels Like: 67 °F
Forecast: 80 / 64 °F
Wind: 6 mph from Southeast

Location: New Orleans Naval Air Station

Current Time: Apr 3, 2020 at 9:58:52 pm

Latest Report: Apr 3, 2020 at 8:55 pm


Visibility: 10 mi

Pressure: 29.96 "Hg

Humidity: 81%

Dew Point: 61 °F

Location of New OrleansLocation

Past Weather in New Orleans — Graph

°F

New Orleans Temperature Yesterday

Maximum temperature yesterday: 76 °F (at 1:55 pm)
Minimum temperature yesterday: 52 °F (at 2:55 am)
Average temperature yesterday: 65 °F

High & Low Weather Summary for the Past Weeks

 TemperatureHumidityPressure
High85 °F (Mar 25, 1:55 pm)100% (Mar 20, 2:55 am)30.29 "Hg (Mar 20, 2:55 am)
Low48 °F (Apr 1, 5:55 am)43% (Mar 25, 5:55 pm)29.80 "Hg (Mar 31, 2:55 pm)
Average73 °F81%30.02 "Hg
* Reported Mar 19 5:55 pm — Apr 3 5:55 pm, New Orleans. Weather by CustomWeather, © 2020

Note: Actual official high and low records may vary slightly from our data, if they occured in-between our weather recording intervals... More about our weather records

New Orleans Weather History for the Previous 24 Hours

Scroll right to see more
 ConditionsComfort  
Time TempWeatherWind HumidityBarometerVisibility
5:55 pm
Fri, Apr 3
74 °FSunny.10 mph60%29.94 "Hg10 mi
4:55 pm75 °FBroken clouds.10 mph58%29.95 "Hg10 mi
3:55 pm76 °FBroken clouds.9 mph56%29.97 "Hg10 mi
1:55 pm76 °FPartly sunny.6 mph52%30.00 "Hg10 mi
12:55 pm75 °FMostly cloudy.8 mph55%30.03 "Hg10 mi
11:55 am75 °FMostly cloudy.13 mph54%30.04 "Hg10 mi
10:55 am74 °FSunny.13 mph60%30.03 "Hg10 mi
9:55 am73 °FHigh level clouds.9 mph59%30.02 "Hg10 mi
8:55 am70 °FPartly sunny.8 mph73%30.00 "Hg10 mi
7:55 am61 °FPartly sunny.3 mph97%29.99 "Hg10 mi
6:55 am57 °FFog.3 mph100%30.00 "Hg7 mi
5:55 am57 °FClear.No wind100%30.00 "Hg9 mi
4:55 am57 °FClear.No wind100%29.99 "Hg9 mi
2:55 am59 °FClear.3 mph100%29.98 "Hg10 mi
1:55 am62 °FClear.No wind96%29.96 "Hg10 mi
12:55 am66 °FClear.3 mph78%29.97 "Hg10 mi
10:55 pm
Thu, Apr 2
64 °FLight rain. Passing clouds.6 mph90%29.99 "Hg10 mi
9:55 pm67 °FLight rain. Passing clouds.9 mph76%30.00 "Hg10 mi
Weather by CustomWeather, © 2020

See weather overview

Advertising